Regional Weather Roundup
Issued by NWS

Home | Current Version | Previous Version | Text Only | Print | Product List | Glossary On
Versions: 1 2 3 4 5 6 7 8 9 10 11 12 13 14 15 16 17 18 19 20 21 22 23 24 25 26 27 28 29 30 31 32 33 34 35 36 37 38 39 40 41 42 43 44 45 46 47 48 49 50
000
ASUS42 KKEY 010510
RWRKEY

FLORIDA REGIONAL WEATHER ROUNDUP FOR THE FLORIDA KEYS
NATIONAL WEATHER SERVICE KEY WEST FLORIDA
1200 AM EST SUN FEB 01 2015

...SOUTH FLORIDA AND THE KEYS...

CITY           SKY/WX    TMP DP  RH WIND       PRES   REMARKS
FORT MYERS     PTCLDY    57  51  80 E6        30.22F
SW REGIONAL AP PTCLDY    55  50  83 E6        30.23F
NAPLES         CLEAR     57  51  80 NE8       30.21F
MIAMI          CLOUDY    68  55  63 E12       30.22F
WEST KENDALL   PTCLDY    67  52  58 E10       30.22F
HOMESTEAD      PTCLDY    67  52  58 E13       30.21F
MARATHON       PTCLDY    69  55  60 E8        30.19F
BOCA CHICA NAS CLEAR     65  59  81 NE9       30.18F
KEY WEST INTL  CLEAR     66  60  81 NE8       30.18F

...INTERNATIONAL WEATHER...

CITY           SKY/WX    TMP DP  RH WIND       PRES   REMARKS
NASSAU BAHAMAS NOT AVBL
CANCUN MEXICO  MOCLDY    73  61  64 SE8       30.09S
COZUMEL MEXICO MOCLDY    64  63  94 CALM      30.08F

ADJACENT COASTAL WATERS...

STATION/POSITION TIME  SKY/WX   TEMP    WIND        PRES    WAVE
                                AIR SEA DIR/SP/G            HT/PER
                 (UTC)          (F)     (DEG/KT/KT) (MB)    (FT/S)
PULASKI SHOAL LI NOT AVBL
SAND KEY         NOT AVBL
SOMBRERO KEY     NOT AVBL
LONG KEY         NOT AVBL
MOLASSES REEF    NOT AVBL
FOWEY ROCKS      NOT AVBL
Buoy 42080       NOT AVBL

$$



USA.gov is the U.S. government's official web portal to all federal, state and local government web resources and services.